M I D A S
Marine Information and Data Acquisition System
Tripno 969 of the Zeeleeuw from 2005-10-10 07:29:46 to 2005-10-11 13:43:15
Back to CruiseResearch ActivitiesStationsMapUnderway DataData graphs

EquipmentUnitsComments
TimeDGPSUTC
LatitudeDGPSDM.mWGS84
LongitudeDGPSDM.mWGS84
SpeedMeteo Stationm/sRelative wind speed
DirectionMeteo StationdegRelative wind direction
TemperatureMeteo Stationdeg CelciusAir temperature
PressureMeteo StationPaAtmospheric pressure
HumidityMeteo Station%Relative humidity
Missing or incorrect values are displayed as -999
Metereological data collected by the RV Zeeleeuw from 2005-10-10 03:01:00 to 2005-10-11 13:55:35
                                                                                    Next 1000 lines
Time Latitude Longitude Speed Direction Temperature Pressure Humidity
2005-10-10 03:01:10 51°13.6 2°56.101 -999 5 13.1 101940 100
2005-10-10 03:01:15 51°13.6 2°56.102 -999 6 13.1 101930 100
2005-10-10 03:01:20 51°13.6 2°56.102 -999 6 13.1 101930 100
2005-10-10 03:01:25 51°13.6 2°56.102 -999 6 13.1 101930 100
2005-10-10 03:01:30 51°13.6 2°56.102 -999 8 13.1 101930 100
2005-10-10 03:01:35 51°13.6 2°56.102 -999 7 13.1 101930 100
2005-10-10 03:01:40 51°13.6 2°56.101 -999 8 13.1 101930 100
2005-10-10 03:01:45 51°13.601 2°56.101 -999 6 13.1 101930 100
2005-10-10 03:01:50 51°13.601 2°56.101 -999 5 13.1 101930 100
2005-10-10 03:01:55 51°13.601 2°56.101 -999 3 13.1 101930 100
2005-10-10 03:02:01 51°13.601 2°56.101 -999 3 13.1 101930 100
2005-10-10 03:02:06 51°13.601 2°56.101 -999 4 13.1 101930 100
2005-10-10 03:02:10 51°13.601 2°56.101 -999 5 13.1 101930 100
2005-10-10 03:02:15 51°13.601 2°56.101 -999 7 13.1 101930 100
2005-10-10 03:02:21 51°13.601 2°56.101 -999 7 13.1 101930 100
2005-10-10 03:02:26 51°13.602 2°56.101 -999 8 13.1 101930 100
2005-10-10 03:02:30 51°13.602 2°56.101 -999 6 13.1 101930 100
2005-10-10 03:02:35 51°13.602 2°56.1 -999 9 13 101930 100
2005-10-10 03:02:40 51°13.602 2°56.1 -999 8 13 101930 100
2005-10-10 03:02:46 51°13.602 2°56.1 -999 17 13.1 101930 100
2005-10-10 03:02:50 51°13.603 2°56.1 -999 15 13.1 101930 100
2005-10-10 03:02:55 51°13.603 2°56.1 -999 7 13.1 101930 100
2005-10-10 03:03:00 51°13.603 2°56.099 -999 6 13.1 101930 100
2005-10-10 03:03:06 51°13.603 2°56.099 -999 13 13.1 101930 100
2005-10-10 03:03:10 51°13.603 2°56.099 -999 12 13.1 101930 100
2005-10-10 03:03:15 51°13.603 2°56.099 -999 12 13.1 101930 100
2005-10-10 03:03:20 51°13.603 2°56.099 -999 11 13.1 101930 100
2005-10-10 03:03:25 51°13.603 2°56.099 -999 15 13.1 101930 100
2005-10-10 03:03:30 51°13.603 2°56.099 -999 15 13.1 101930 100
2005-10-10 03:03:35 51°13.603 2°56.099 -999 14 13.1 101930 100
2005-10-10 03:03:40 51°13.603 2°56.1 -999 15 13.1 101930 100
2005-10-10 03:03:45 51°13.603 2°56.1 -999 9 13.1 101930 100
2005-10-10 03:03:50 51°13.602 2°56.1 -999 9 13.1 101930 100
2005-10-10 03:03:55 51°13.602 2°56.1 -999 6 13.1 101930 100
2005-10-10 03:04:00 51°13.602 2°56.1 -999 7 13.1 101930 100
2005-10-10 03:04:05 51°13.602 2°56.1 -999 13 13.1 101930 100
2005-10-10 03:04:10 51°13.602 2°56.1 -999 17 13.1 101930 100
2005-10-10 03:04:16 51°13.602 2°56.1 -999 14 13.1 101930 100
2005-10-10 03:04:21 51°13.602 2°56.1 -999 15 13.1 101930 100
2005-10-10 03:04:25 51°13.601 2°56.1 -999 6 13.1 101930 100
2005-10-10 03:04:30 51°13.601 2°56.1 -999 12 13.1 101930 100
2005-10-10 03:04:35 51°13.601 2°56.1 -999 13 13.1 101930 100
2005-10-10 03:04:41 51°13.602 2°56.1 -999 13 13.1 101930 100
2005-10-10 03:04:46 51°13.602 2°56.1 -999 10 13.1 101930 100
2005-10-10 03:04:50 51°13.602 2°56.1 -999 11 13.1 101930 100
2005-10-10 03:04:55 51°13.602 2°56.1 -999 11 13.1 101930 100
2005-10-10 03:05:00 51°13.602 2°56.1 -999 12 13.1 101930 100
2005-10-10 03:05:06 51°13.602 2°56.1 -999 12 13.1 101930 100
2005-10-10 03:05:10 51°13.601 2°56.1 -999 14 13.1 101930 100
2005-10-10 03:05:15 51°13.602 2°56.1 -999 13 13.1 101930 100
2005-10-10 03:05:20 51°13.602 2°56.1 -999 4 13.1 101930 100
2005-10-10 03:05:25 51°13.601 2°56.101 -999 359 13.1 101930 100
2005-10-10 03:05:30 51°13.601 2°56.101 -999 2 13.1 101930 100
2005-10-10 03:05:35 51°13.601 2°56.101 -999 4 13.1 101930 100
2005-10-10 03:05:40 51°13.602 2°56.099 -999 7 13.1 101930 100
2005-10-10 03:05:45 51°13.601 2°56.098 -999 8 13.1 101930 100
2005-10-10 03:05:50 51°13.601 2°56.097 -999 6 13.1 101930 100
2005-10-10 03:05:55 51°13.6 2°56.097 -999 7 13.1 101930 100
2005-10-10 03:06:00 51°13.6 2°56.098 -999 6 13.1 101930 100
2005-10-10 03:06:05 51°13.6 2°56.098 -999 9 13.1 101930 100
2005-10-10 03:06:10 51°13.601 2°56.099 -999 10 13.1 101930 100
2005-10-10 03:06:15 51°13.601 2°56.099 -999 10 13.1 101930 100
2005-10-10 03:06:21 51°13.601 2°56.099 -999 10 13.1 101930 100
2005-10-10 03:06:25 51°13.601 2°56.099 -999 11 13.1 101930 100
2005-10-10 03:06:30 51°13.601 2°56.1 -999 12 13.1 101930 100
2005-10-10 03:06:35 51°13.601 2°56.1 -999 12 13.1 101930 100
2005-10-10 03:06:41 51°13.601 2°56.1 -999 12 13.1 101930 100
2005-10-10 03:06:45 51°13.602 2°56.102 -999 14 13.1 101930 100
2005-10-10 03:06:50 51°13.604 2°56.103 -999 14 13.1 101930 100
2005-10-10 03:06:55 51°13.605 2°56.103 -999 15 13 101930 100
2005-10-10 03:07:01 51°13.606 2°56.103 -999 13 13 101930 100
2005-10-10 03:07:06 51°13.606 2°56.103 -999 13 13.1 101920 100
2005-10-10 03:07:10 51°13.606 2°56.103 -999 12 13.1 101920 100
2005-10-10 03:07:15 51°13.605 2°56.102 -999 358 13 101930 100
2005-10-10 03:07:20 51°13.605 2°56.101 -999 360 13 101930 100
2005-10-10 03:07:26 51°13.604 2°56.101 -999 -999 13 101930 100
2005-10-10 03:07:30 51°13.604 2°56.101 -999 358 13 101930 100
2005-10-10 03:07:35 51°13.604 2°56.102 -999 9 13 101930 100
2005-10-10 03:07:40 51°13.603 2°56.102 -999 6 13 101930 100
2005-10-10 03:07:45 51°13.603 2°56.102 -999 9 13 101930 100
2005-10-10 03:07:50 51°13.603 2°56.102 -999 8 13 101930 100
2005-10-10 03:07:55 51°13.603 2°56.102 -999 20 13 101930 100
2005-10-10 03:08:00 51°13.603 2°56.102 -999 22 13 101930 100
2005-10-10 03:08:05 51°13.603 2°56.102 -999 14 13 101930 100
2005-10-10 03:08:10 51°13.603 2°56.102 -999 8 13 101930 100
2005-10-10 03:08:15 51°13.602 2°56.102 -999 7 13 101920 100
2005-10-10 03:08:20 51°13.602 2°56.102 -999 6 13 101920 100
2005-10-10 03:08:25 51°13.602 2°56.103 -999 8 13 101930 100
2005-10-10 03:08:30 51°13.603 2°56.103 -999 8 13 101930 100
2005-10-10 03:08:36 51°13.603 2°56.103 -999 3 13 101930 100
2005-10-10 03:08:41 51°13.603 2°56.103 -999 9 13 101930 100
2005-10-10 03:08:45 51°13.603 2°56.103 -999 355 13 101920 100
2005-10-10 03:08:50 51°13.602 2°56.103 -999 357 13 101920 100
2005-10-10 03:08:55 51°13.602 2°56.102 -999 360 13 101930 100
2005-10-10 03:09:01 51°13.602 2°56.102 -999 -999 13 101930 100
2005-10-10 03:09:06 51°13.602 2°56.103 -999 5 13 101930 100
2005-10-10 03:09:10 51°13.602 2°56.103 -999 10 13 101930 100
2005-10-10 03:09:15 51°13.603 2°56.104 -999 21 13 101930 100
2005-10-10 03:09:21 51°13.602 2°56.103 -999 21 13 101930 100
2005-10-10 03:09:26 51°13.602 2°56.102 -999 20 13 101920 100
2005-10-10 03:09:30 51°13.601 2°56.102 -999 10 13 101920 100
2005-10-10 03:09:35 51°13.601 2°56.102 -999 12 13 101920 100
2005-10-10 03:09:40 51°13.601 2°56.102 -999 13 13 101920 100
2005-10-10 03:09:46 51°13.601 2°56.102 -999 13 13 101930 100
2005-10-10 03:09:50 51°13.601 2°56.101 -999 12 13 101930 100
2005-10-10 03:09:55 51°13.601 2°56.102 -999 13 13 101920 100
2005-10-10 03:10:00 51°13.601 2°56.101 -999 4 13 101920 100
2005-10-10 03:10:05 51°13.603 2°56.102 -999 4 13 101930 100
2005-10-10 03:10:10 51°13.604 2°56.103 -999 4 13 101930 100
2005-10-10 03:10:15 51°13.605 2°56.103 -999 4 13.1 101920 100
2005-10-10 03:10:20 51°13.606 2°56.103 -999 6 13.1 101920 100
2005-10-10 03:10:25 51°13.606 2°56.104 -999 15 13 101920 100
2005-10-10 03:10:30 51°13.607 2°56.104 -999 15 13 101920 100
2005-10-10 03:10:35 51°13.607 2°56.103 -999 12 13 101930 100
2005-10-10 03:10:41 51°13.607 2°56.103 -999 15 13 101930 100
2005-10-10 03:10:45 51°13.605 2°56.102 -999 11 13 101920 100
2005-10-10 03:10:50 51°13.603 2°56.101 -999 10 13 101920 100
2005-10-10 03:10:56 51°13.602 2°56.101 -999 9 13 101920 100
2005-10-10 03:11:01 51°13.602 2°56.101 -999 12 13 101920 100
2005-10-10 03:11:05 51°13.603 2°56.101 -999 11 13 101920 100
2005-10-10 03:11:10 51°13.603 2°56.101 -999 7 13 101920 100
2005-10-10 03:11:15 51°13.603 2°56.101 -999 4 13 101930 100
2005-10-10 03:11:21 51°13.603 2°56.1 -999 5 13 101930 100
2005-10-10 03:11:26 51°13.603 2°56.1 -999 4 13 101920 100
2005-10-10 03:11:30 51°13.603 2°56.1 -999 13 13 101920 100
2005-10-10 03:11:35 51°13.602 2°56.1 -999 11 13 101920 100
2005-10-10 03:11:40 51°13.603 2°56.1 -999 10 13 101920 100
2005-10-10 03:11:46 51°13.603 2°56.1 -999 13 13 101920 100
2005-10-10 03:11:50 51°13.603 2°56.1 -999 8 13 101920 100
2005-10-10 03:11:55 51°13.602 2°56.1 -999 12 13 101930 100
2005-10-10 03:12:00 51°13.603 2°56.1 -999 11 13 101930 100
2005-10-10 03:12:05 51°13.603 2°56.1 -999 13 13 101920 100
2005-10-10 03:12:10 51°13.603 2°56.1 -999 13 13 101920 100
2005-10-10 03:12:15 51°13.603 2°56.1 -999 11 13 101930 100
2005-10-10 03:12:20 51°13.603 2°56.1 -999 11 13 101930 100
2005-10-10 03:12:25 51°13.604 2°56.1 -999 14 13 101930 100
2005-10-10 03:12:30 51°13.604 2°56.101 -999 14 13 101930 100
2005-10-10 03:12:35 51°13.605 2°56.101 -999 350 13 101930 100
2005-10-10 03:12:40 51°13.605 2°56.101 -999 351 13 101930 100
2005-10-10 03:12:45 51°13.605 2°56.101 -999 359 13 101920 100
2005-10-10 03:12:50 51°13.605 2°56.101 -999 -999 13 101920 100
2005-10-10 03:12:55 51°13.605 2°56.101 -999 6 13 101920 100
2005-10-10 03:13:01 51°13.604 2°56.101 -999 7 13 101920 100
2005-10-10 03:13:05 51°13.604 2°56.101 -999 9 13 101930 100
2005-10-10 03:13:10 51°13.604 2°56.101 -999 9 13 101930 100
2005-10-10 03:13:15 51°13.604 2°56.101 -999 10 13 101930 100
2005-10-10 03:13:21 51°13.604 2°56.101 -999 14 13 101930 100
2005-10-10 03:13:25 51°13.604 2°56.101 -999 3 13 101920 100
2005-10-10 03:13:30 51°13.605 2°56.101 -999 3 13 101920 100
2005-10-10 03:13:35 51°13.605 2°56.101 -999 3 13 101920 100
2005-10-10 03:13:41 51°13.605 2°56.101 -999 14 13 101920 100
2005-10-10 03:13:46 51°13.605 2°56.101 -999 28 13 101930 100
2005-10-10 03:13:50 51°13.605 2°56.101 -999 18 13 101930 100
2005-10-10 03:13:55 51°13.605 2°56.101 -999 17 13 101930 100
2005-10-10 03:14:00 51°13.605 2°56.101 -999 17 13 101930 100
2005-10-10 03:14:06 51°13.605 2°56.101 -999 16 13 101920 100
2005-10-10 03:14:10 51°13.605 2°56.101 -999 15 13 101920 100
2005-10-10 03:14:15 51°13.605 2°56.101 -999 15 13 101930 100
2005-10-10 03:14:20 51°13.605 2°56.101 -999 15 13 101930 100
2005-10-10 03:14:26 51°13.605 2°56.101 -999 12 13 101930 100
2005-10-10 03:14:30 51°13.605 2°56.101 -999 17 13 101930 100
2005-10-10 03:14:35 51°13.605 2°56.101 -999 17 13 101920 100
2005-10-10 03:14:40 51°13.605 2°56.101 -999 17 13 101920 100
2005-10-10 03:14:45 51°13.605 2°56.101 -999 15 13 101920 100
2005-10-10 03:14:50 51°13.605 2°56.101 -999 15 13 101920 100
2005-10-10 03:14:55 51°13.605 2°56.101 -999 7 13 101920 100
2005-10-10 03:15:00 51°13.605 2°56.101 -999 7 13 101920 100
2005-10-10 03:15:05 51°13.605 2°56.101 -999 7 13 101920 100
2005-10-10 03:15:10 51°13.605 2°56.101 -999 10 13 101920 100
2005-10-10 03:15:15 51°13.605 2°56.101 -999 9 13 101920 100
2005-10-10 03:15:21 51°13.605 2°56.101 -999 9 13 101920 100
2005-10-10 03:15:25 51°13.605 2°56.101 -999 9 13 101920 100
2005-10-10 03:15:30 51°13.605 2°56.101 -999 11 13 101920 100
2005-10-10 03:15:35 51°13.605 2°56.101 -999 12 13 101920 100
2005-10-10 03:15:41 51°13.605 2°56.101 -999 13 13 101920 100
2005-10-10 03:15:46 51°13.605 2°56.101 -999 14 13 101920 100
2005-10-10 03:15:50 51°13.605 2°56.101 -999 14 13 101920 100
2005-10-10 03:15:55 51°13.605 2°56.101 -999 14 13 101920 100
2005-10-10 03:16:01 51°13.605 2°56.101 -999 14 13 101920 100
2005-10-10 03:16:06 51°13.604 2°56.101 -999 16 13 101920 100
2005-10-10 03:16:10 51°13.604 2°56.1 -999 17 13 101920 100
2005-10-10 03:16:15 51°13.604 2°56.1 -999 13 13 101920 100
2005-10-10 03:16:20 51°13.604 2°56.1 -999 9 13 101920 100
2005-10-10 03:16:26 51°13.604 2°56.101 -999 11 13 101920 100
2005-10-10 03:16:30 51°13.604 2°56.101 -999 14 13 101920 100
2005-10-10 03:16:35 51°13.605 2°56.101 -999 15 13 101920 100
2005-10-10 03:16:40 51°13.605 2°56.101 -999 15 13 101920 100
2005-10-10 03:16:46 51°13.605 2°56.101 -999 32 13 101920 100
2005-10-10 03:16:50 51°13.605 2°56.101 -999 27 13 101920 100
2005-10-10 03:16:55 51°13.605 2°56.101 -999 27 13 101920 100
2005-10-10 03:17:00 51°13.605 2°56.101 -999 31 13 101920 100
2005-10-10 03:17:05 51°13.605 2°56.102 -999 25 13 101920 100
2005-10-10 03:17:10 51°13.605 2°56.102 -999 22 13 101920 100
2005-10-10 03:17:15 51°13.605 2°56.102 -999 18 13 101920 100
2005-10-10 03:17:21 51°13.605 2°56.102 -999 18 13 101920 100
2005-10-10 03:17:25 51°13.605 2°56.102 -999 18 13 101920 100
2005-10-10 03:17:30 51°13.605 2°56.102 -999 17 13 101920 100
2005-10-10 03:17:35 51°13.603 2°56.101 -999 17 13 101920 100
2005-10-10 03:17:41 51°13.603 2°56.101 -999 17 13 101920 100
2005-10-10 03:17:45 51°13.602 2°56.1 -999 17 13 101920 100
2005-10-10 03:17:50 51°13.602 2°56.101 -999 13 13 101920 100
2005-10-10 03:17:55 51°13.602 2°56.101 -999 13 13 101920 100
2005-10-10 03:18:01 51°13.602 2°56.101 -999 13 13 101920 100
2005-10-10 03:18:06 51°13.602 2°56.1 -999 11 13 101920 100
2005-10-10 03:18:10 51°13.602 2°56.1 -999 14 13 101920 100
2005-10-10 03:18:15 51°13.602 2°56.1 -999 20 13 101920 100
2005-10-10 03:18:20 51°13.602 2°56.1 -999 35 13 101920 100
2005-10-10 03:18:26 51°13.602 2°56.1 -999 29 13 101920 100
2005-10-10 03:18:30 51°13.602 2°56.101 -999 13 13 101920 100
2005-10-10 03:18:35 51°13.602 2°56.101 -999 9 13 101920 100
2005-10-10 03:18:40 51°13.602 2°56.101 -999 9 13 101920 100
2005-10-10 03:18:46 51°13.602 2°56.101 -999 9 13 101920 100
2005-10-10 03:18:50 51°13.602 2°56.101 -999 9 13 101920 100
2005-10-10 03:18:55 51°13.602 2°56.1 -999 15 13 101920 100
2005-10-10 03:19:00 51°13.602 2°56.101 -999 14 13 101920 100
2005-10-10 03:19:05 51°13.602 2°56.1 -999 3 12.9 101920 100
2005-10-10 03:19:10 51°13.602 2°56.101 -999 1 12.9 101920 100
2005-10-10 03:19:15 51°13.603 2°56.101 -999 11 13 101920 100
2005-10-10 03:19:20 51°13.603 2°56.101 -999 21 13 101920 100
2005-10-10 03:19:25 51°13.603 2°56.101 -999 18 13 101920 100
2005-10-10 03:19:30 51°13.603 2°56.101 -999 19 13 101920 100
2005-10-10 03:19:35 51°13.602 2°56.1 -999 16 13 101920 100
2005-10-10 03:19:41 51°13.602 2°56.1 -999 18 13 101920 100
2005-10-10 03:19:45 51°13.602 2°56.1 -999 13 13 101920 100
2005-10-10 03:19:50 51°13.601 2°56.1 -999 13 13 101920 100
2005-10-10 03:19:55 51°13.601 2°56.1 -999 13 13 101920 100
2005-10-10 03:20:01 51°13.601 2°56.1 -999 13 13 101920 100
2005-10-10 03:20:06 51°13.602 2°56.1 -999 15 12.9 101920 100
2005-10-10 03:20:10 51°13.602 2°56.1 -999 15 12.9 101920 100
2005-10-10 03:20:15 51°13.601 2°56.1 -999 21 12.9 101920 100
2005-10-10 03:20:21 51°13.602 2°56.1 -999 41 12.9 101920 100
2005-10-10 03:20:26 51°13.602 2°56.1 -999 33 12.9 101920 100
2005-10-10 03:20:30 51°13.602 2°56.1 -999 32 12.9 101920 100
2005-10-10 03:20:35 51°13.602 2°56.1 -999 25 13 101920 100
2005-10-10 03:20:41 51°13.602 2°56.101 -999 14 13 101920 100
2005-10-10 03:20:46 51°13.603 2°56.101 -999 14 12.9 101920 100
2005-10-10 03:20:50 51°13.602 2°56.1 -999 13 12.9 101920 100
2005-10-10 03:20:55 51°13.602 2°56.1 -999 13 13 101920 100
2005-10-10 03:21:00 51°13.602 2°56.1 -999 13 13 101920 100
2005-10-10 03:21:06 51°13.602 2°56.1 -999 13 13 101920 100
2005-10-10 03:21:10 51°13.602 2°56.1 -999 14 13 101920 100
2005-10-10 03:21:15 51°13.602 2°56.1 -999 12 12.9 101920 100
2005-10-10 03:21:20 51°13.602 2°56.1 -999 13 12.9 101920 100
2005-10-10 03:21:25 51°13.602 2°56.1 -999 15 12.9 101920 100
2005-10-10 03:21:30 51°13.602 2°56.1 -999 20 12.9 101920 100
2005-10-10 03:21:35 51°13.602 2°56.1 -999 9 12.9 101920 100
2005-10-10 03:21:40 51°13.602 2°56.1 -999 22 12.9 101920 100
2005-10-10 03:21:45 51°13.602 2°56.1 -999 19 12.9 101920 100
2005-10-10 03:21:50 51°13.602 2°56.1 -999 18 12.9 101920 100
2005-10-10 03:21:55 51°13.601 2°56.099 -999 25 12.9 101920 100
2005-10-10 03:22:01 51°13.601 2°56.099 -999 18 12.9 101920 100
2005-10-10 03:22:05 51°13.601 2°56.099 -999 8 13 101920 100
2005-10-10 03:22:10 51°13.601 2°56.099 -999 15 13 101920 100
2005-10-10 03:22:16 51°13.601 2°56.099 -999 11 12.9 101920 100
2005-10-10 03:22:21 51°13.601 2°56.099 -999 13 12.9 101920 100
2005-10-10 03:22:26 51°13.601 2°56.099 -999 11 12.9 101920 100
2005-10-10 03:22:30 51°13.601 2°56.099 -999 12 12.9 101920 100
2005-10-10 03:22:35 51°13.601 2°56.099 -999 20 12.9 101920 100
2005-10-10 03:22:41 51°13.602 2°56.099 -999 348 12.9 101920 100
2005-10-10 03:22:46 51°13.602 2°56.099 -999 360 12.9 101920 100
2005-10-10 03:22:50 51°13.601 2°56.099 -999 -999 12.9 101920 100
2005-10-10 03:22:55 51°13.601 2°56.098 -999 8 12.9 101920 100
2005-10-10 03:23:01 51°13.601 2°56.098 -999 8 12.9 101920 100
2005-10-10 03:23:06 51°13.601 2°56.098 -999 9 12.9 101920 100
2005-10-10 03:23:10 51°13.601 2°56.098 -999 9 12.9 101920 100
2005-10-10 03:23:15 51°13.601 2°56.098 -999 16 12.9 101920 100
2005-10-10 03:23:20 51°13.602 2°56.098 -999 12 12.9 101920 100
2005-10-10 03:23:26 51°13.602 2°56.099 -999 16 12.9 101920 100
2005-10-10 03:23:30 51°13.602 2°56.099 -999 15 12.9 101920 100
2005-10-10 03:23:35 51°13.603 2°56.099 -999 15 12.9 101920 100
2005-10-10 03:23:40 51°13.603 2°56.099 -999 13 12.9 101920 100
2005-10-10 03:23:45 51°13.603 2°56.099 -999 15 12.9 101920 100
2005-10-10 03:23:50 51°13.603 2°56.099 -999 21 12.9 101920 100
2005-10-10 03:23:55 51°13.603 2°56.099 -999 20 12.9 101920 100
2005-10-10 03:24:00 51°13.603 2°56.099 -999 20 12.9 101920 100
2005-10-10 03:24:05 51°13.603 2°56.099 -999 14 12.9 101920 100
2005-10-10 03:24:10 51°13.602 2°56.099 -999 15 12.9 101920 100
2005-10-10 03:24:15 51°13.602 2°56.099 -999 12 12.9 101930 100
2005-10-10 03:24:21 51°13.603 2°56.099 -999 12 12.9 101930 100
2005-10-10 03:24:25 51°13.603 2°56.099 -999 13 12.9 101920 100
2005-10-10 03:24:30 51°13.603 2°56.099 -999 13 12.9 101920 100
2005-10-10 03:24:36 51°13.604 2°56.1 -999 13 12.9 101920 100
2005-10-10 03:24:41 51°13.604 2°56.1 -999 15 12.9 101920 100
2005-10-10 03:24:46 51°13.605 2°56.1 -999 4 12.9 101920 100
2005-10-10 03:24:50 51°13.605 2°56.1 -999 4 12.9 101920 100
2005-10-10 03:24:55 51°13.605 2°56.1 -999 19 12.9 101920 100
2005-10-10 03:25:01 51°13.603 2°56.099 -999 16 12.9 101920 100
2005-10-10 03:25:06 51°13.603 2°56.098 -999 32 12.9 101920 100
2005-10-10 03:25:10 51°13.603 2°56.098 -999 30 12.9 101920 100
2005-10-10 03:25:15 51°13.603 2°56.098 -999 12 12.9 101920 100
2005-10-10 03:25:21 51°13.603 2°56.098 -999 12 12.9 101920 100
2005-10-10 03:25:26 51°13.603 2°56.099 -999 18 12.9 101920 100
2005-10-10 03:25:30 51°13.603 2°56.099 -999 13 12.9 101920 100
2005-10-10 03:25:35 51°13.603 2°56.098 -999 14 12.9 101920 100
2005-10-10 03:25:40 51°13.603 2°56.099 -999 15 12.9 101920 100
2005-10-10 03:25:46 51°13.603 2°56.099 -999 14 12.9 101920 100
2005-10-10 03:25:50 51°13.602 2°56.098 -999 13 12.9 101920 100
2005-10-10 03:25:55 51°13.602 2°56.098 -999 11 12.9 101920 100
2005-10-10 03:26:00 51°13.602 2°56.098 -999 1 12.9 101920 100
2005-10-10 03:26:05 51°13.602 2°56.098 -999 356 12.9 101920 100
2005-10-10 03:26:10 51°13.602 2°56.098 -999 6 12.9 101920 100
2005-10-10 03:26:15 51°13.601 2°56.097 -999 6 12.9 101920 100
2005-10-10 03:26:20 51°13.601 2°56.097 -999 11 12.9 101920 100
2005-10-10 03:26:25 51°13.6 2°56.097 -999 15 12.9 101920 100
2005-10-10 03:26:30 51°13.6 2°56.097 -999 21 12.9 101920 100
2005-10-10 03:26:36 51°13.6 2°56.097 -999 15 12.9 101920 100
2005-10-10 03:26:41 51°13.6 2°56.098 -999 23 12.9 101920 100
2005-10-10 03:26:45 51°13.6 2°56.098 -999 10 12.9 101920 100
2005-10-10 03:26:50 51°13.6 2°56.098 -999 10 12.9 101920 100
2005-10-10 03:26:56 51°13.6 2°56.098 -999 4 12.9 101920 100
2005-10-10 03:27:01 51°13.6 2°56.098 -999 12 12.9 101920 100
2005-10-10 03:27:05 51°13.6 2°56.098 -999 11 12.9 101920 100
2005-10-10 03:27:10 51°13.601 2°56.098 -999 15 12.9 101920 100
2005-10-10 03:27:15 51°13.601 2°56.098 -999 23 12.9 101920 100
2005-10-10 03:27:21 51°13.601 2°56.098 -999 20 12.9 101920 100
2005-10-10 03:27:26 51°13.601 2°56.098 -999 13 12.9 101920 100
2005-10-10 03:27:30 51°13.601 2°56.099 -999 11 12.9 101920 100
2005-10-10 03:27:35 51°13.601 2°56.099 -999 11 12.9 101920 100
2005-10-10 03:27:41 51°13.601 2°56.099 -999 10 12.9 101920 100
2005-10-10 03:27:46 51°13.602 2°56.1 -999 8 12.9 101920 100
2005-10-10 03:27:50 51°13.602 2°56.1 -999 11 12.9 101920 100
2005-10-10 03:27:55 51°13.602 2°56.1 -999 12 12.9 101920 100
2005-10-10 03:28:00 51°13.602 2°56.1 -999 21 12.9 101920 100
2005-10-10 03:28:06 51°13.602 2°56.101 -999 22 12.9 101920 100
2005-10-10 03:28:10 51°13.603 2°56.101 -999 10 12.9 101920 100
2005-10-10 03:28:15 51°13.603 2°56.101 -999 17 12.9 101920 100
2005-10-10 03:28:20 51°13.604 2°56.102 -999 18 12.9 101920 100
2005-10-10 03:28:25 51°13.604 2°56.102 -999 16 12.9 101920 100
2005-10-10 03:28:30 51°13.604 2°56.102 -999 17 12.9 101920 100
2005-10-10 03:28:35 51°13.605 2°56.102 -999 30 12.9 101920 100
2005-10-10 03:28:40 51°13.605 2°56.102 -999 16 12.9 101920 100
2005-10-10 03:28:45 51°13.605 2°56.102 -999 15 12.9 101920 100
2005-10-10 03:28:50 51°13.604 2°56.102 -999 14 12.9 101920 100
2005-10-10 03:28:56 51°13.604 2°56.102 -999 13 12.9 101920 100
2005-10-10 03:29:01 51°13.604 2°56.102 -999 17 12.9 101920 100
2005-10-10 03:29:05 51°13.604 2°56.101 -999 19 12.9 101920 100
2005-10-10 03:29:10 51°13.604 2°56.101 -999 21 12.9 101920 100
2005-10-10 03:29:15 51°13.604 2°56.101 -999 19 12.9 101920 100
2005-10-10 03:29:21 51°13.602 2°56.1 -999 16 12.9 101920 100
2005-10-10 03:29:26 51°13.601 2°56.099 -999 13 12.9 101920 100
2005-10-10 03:29:30 51°13.6 2°56.099 -999 15 12.9 101920 100
2005-10-10 03:29:35 51°13.6 2°56.099 -999 17 12.9 101920 100
2005-10-10 03:29:41 51°13.6 2°56.098 -999 17 12.9 101920 100
2005-10-10 03:29:46 51°13.6 2°56.098 -999 20 12.9 101920 100
2005-10-10 03:29:50 51°13.6 2°56.099 -999 26 12.9 101920 100
2005-10-10 03:29:55 51°13.601 2°56.099 -999 25 12.9 101920 100
2005-10-10 03:30:00 51°13.601 2°56.099 -999 25 12.9 101920 100
2005-10-10 03:30:06 51°13.601 2°56.099 -999 21 12.9 101920 100
2005-10-10 03:30:10 51°13.601 2°56.099 -999 25 12.9 101920 100
2005-10-10 03:30:15 51°13.6 2°56.099 -999 27 12.9 101920 100
2005-10-10 03:30:20 51°13.6 2°56.098 -999 59 12.9 101920 100
2005-10-10 03:30:26 51°13.599 2°56.098 -999 16 12.9 101920 100
2005-10-10 03:30:30 51°13.599 2°56.098 -999 16 12.9 101920 100
2005-10-10 03:30:35 51°13.599 2°56.099 -999 16 12.9 101920 100
2005-10-10 03:30:40 51°13.599 2°56.099 -999 16 12.9 101920 100
2005-10-10 03:30:45 51°13.6 2°56.099 -999 16 12.9 101920 100
2005-10-10 03:30:50 51°13.601 2°56.1 -999 26 12.9 101920 100
2005-10-10 03:30:55 51°13.602 2°56.1 -999 34 12.9 101920 100
2005-10-10 03:31:01 51°13.602 2°56.1 -999 31 12.9 101920 100
2005-10-10 03:31:05 51°13.602 2°56.1 -999 26 12.9 101920 100
2005-10-10 03:31:10 51°13.602 2°56.1 -999 26 12.9 101920 100
2005-10-10 03:31:16 51°13.602 2°56.1 -999 14 12.9 101920 100
2005-10-10 03:31:21 51°13.602 2°56.1 -999 14 12.9 101920 100
2005-10-10 03:31:25 51°13.601 2°56.1 -999 15 12.9 101920 100
2005-10-10 03:31:30 51°13.6 2°56.099 -999 23 12.9 101920 100
2005-10-10 03:31:36 51°13.6 2°56.099 -999 27 12.9 101920 100
2005-10-10 03:31:41 51°13.6 2°56.099 -999 19 12.9 101920 100
2005-10-10 03:31:46 51°13.6 2°56.099 -999 27 12.9 101920 100
2005-10-10 03:31:50 51°13.6 2°56.099 -999 24 12.9 101920 100
2005-10-10 03:31:55 51°13.6 2°56.099 -999 25 12.9 101920 100
2005-10-10 03:32:01 51°13.6 2°56.099 -999 22 12.9 101920 100
2005-10-10 03:32:06 51°13.6 2°56.099 -999 14 12.9 101920 100
2005-10-10 03:32:10 51°13.6 2°56.099 -999 14 12.9 101920 100
2005-10-10 03:32:15 51°13.6 2°56.099 -999 13 12.9 101920 100
2005-10-10 03:32:20 51°13.6 2°56.099 -999 11 12.9 101920 100
2005-10-10 03:32:26 51°13.6 2°56.099 -999 14 12.9 101920 100
2005-10-10 03:32:30 51°13.6 2°56.099 -999 30 12.9 101920 100
2005-10-10 03:32:35 51°13.6 2°56.099 -999 20 12.9 101920 100
2005-10-10 03:32:40 51°13.6 2°56.099 -999 19 12.9 101920 100
2005-10-10 03:32:45 51°13.6 2°56.099 -999 17 12.9 101920 100
2005-10-10 03:32:50 51°13.6 2°56.099 -999 11 12.9 101920 100
2005-10-10 03:32:55 51°13.599 2°56.099 -999 7 12.9 101920 100
2005-10-10 03:33:00 51°13.599 2°56.098 -999 7 12.9 101920 100
2005-10-10 03:33:05 51°13.599 2°56.098 -999 8 12.9 101920 100
2005-10-10 03:33:10 51°13.599 2°56.098 -999 8 12.9 101920 100
2005-10-10 03:33:15 51°13.599 2°56.098 -999 8 12.9 101920 100
2005-10-10 03:33:21 51°13.6 2°56.098 -999 9 12.9 101920 100
2005-10-10 03:33:25 51°13.599 2°56.098 -999 10 12.9 101920 100
2005-10-10 03:33:30 51°13.601 2°56.099 -999 11 12.9 101920 100
2005-10-10 03:33:36 51°13.601 2°56.099 -999 13 12.9 101920 100
2005-10-10 03:33:41 51°13.601 2°56.099 -999 13 12.9 101920 100
2005-10-10 03:33:46 51°13.601 2°56.099 -999 12 12.9 101920 100
2005-10-10 03:33:50 51°13.601 2°56.099 -999 12 12.9 101920 100
2005-10-10 03:33:55 51°13.601 2°56.099 -999 14 12.9 101920 100
2005-10-10 03:34:01 51°13.601 2°56.099 -999 24 12.9 101920 100
2005-10-10 03:34:06 51°13.601 2°56.099 -999 17 12.9 101920 100
2005-10-10 03:34:10 51°13.601 2°56.099 -999 15 12.9 101920 100
2005-10-10 03:34:15 51°13.602 2°56.099 -999 17 12.9 101920 100
2005-10-10 03:34:20 51°13.602 2°56.099 -999 15 12.9 101920 100
2005-10-10 03:34:26 51°13.602 2°56.099 -999 17 12.9 101920 100
2005-10-10 03:34:30 51°13.602 2°56.099 -999 17 12.9 101920 100
2005-10-10 03:34:35 51°13.602 2°56.099 -999 17 12.9 101920 100
2005-10-10 03:34:40 51°13.602 2°56.099 -999 17 12.9 101920 100
2005-10-10 03:34:46 51°13.602 2°56.099 -999 16 12.9 101920 100
2005-10-10 03:34:50 51°13.602 2°56.099 -999 13 12.9 101920 100
2005-10-10 03:34:55 51°13.602 2°56.099 -999 13 12.9 101920 100
2005-10-10 03:35:00 51°13.602 2°56.099 -999 19 12.9 101920 100
2005-10-10 03:35:05 51°13.602 2°56.099 -999 19 12.9 101920 100
2005-10-10 03:35:10 51°13.602 2°56.099 -999 19 12.9 101920 100
2005-10-10 03:35:15 51°13.602 2°56.099 -999 19 12.9 101920 100
2005-10-10 03:35:21 51°13.602 2°56.099 -999 16 12.9 101920 100
2005-10-10 03:35:25 51°13.602 2°56.099 -999 16 12.9 101910 100
2005-10-10 03:35:30 51°13.602 2°56.099 -999 16 12.9 101910 100
2005-10-10 03:35:35 51°13.602 2°56.099 -999 18 12.8 101910 100
2005-10-10 03:35:41 51°13.602 2°56.099 -999 18 12.8 101910 100
2005-10-10 03:35:45 51°13.602 2°56.099 -999 20 12.9 101910 100
2005-10-10 03:35:50 51°13.602 2°56.099 -999 14 12.9 101910 100
2005-10-10 03:35:56 51°13.602 2°56.099 -999 9 12.9 101910 100
2005-10-10 03:36:01 51°13.602 2°56.099 -999 9 12.9 101910 100
2005-10-10 03:36:06 51°13.602 2°56.099 -999 9 12.9 101910 100
2005-10-10 03:36:10 51°13.602 2°56.099 -999 5 12.9 101910 100
2005-10-10 03:36:15 51°13.602 2°56.099 -999 3 12.9 101910 100
2005-10-10 03:36:21 51°13.602 2°56.099 -999 3 12.9 101910 100
2005-10-10 03:36:26 51°13.602 2°56.099 -999 5 12.9 101910 100
2005-10-10 03:36:30 51°13.602 2°56.099 -999 5 12.9 101910 100
2005-10-10 03:36:35 51°13.602 2°56.1 -999 7 12.9 101910 100
2005-10-10 03:36:41 51°13.602 2°56.1 -999 15 12.9 101910 100
2005-10-10 03:36:46 51°13.602 2°56.1 -999 28 12.9 101910 100
2005-10-10 03:36:50 51°13.602 2°56.1 -999 27 12.9 101910 100
2005-10-10 03:36:55 51°13.602 2°56.099 -999 27 12.9 101920 100
2005-10-10 03:37:00 51°13.602 2°56.099 -999 23 12.9 101920 100
2005-10-10 03:37:05 51°13.602 2°56.099 -999 21 12.8 101910 100
2005-10-10 03:37:10 51°13.602 2°56.1 -999 19 12.8 101910 100
2005-10-10 03:37:15 51°13.602 2°56.1 -999 13 12.9 101910 100
2005-10-10 03:37:20 51°13.602 2°56.1 -999 13 12.9 101910 100
2005-10-10 03:37:26 51°13.602 2°56.1 -999 12 12.9 101910 100
2005-10-10 03:37:30 51°13.602 2°56.1 -999 12 12.9 101910 100
2005-10-10 03:37:35 51°13.602 2°56.1 -999 12 12.9 101910 100
2005-10-10 03:37:41 51°13.602 2°56.1 -999 12 12.9 101910 100
2005-10-10 03:37:45 51°13.602 2°56.1 -999 12 12.8 101910 100
2005-10-10 03:37:50 51°13.602 2°56.1 -999 12 12.8 101910 100
2005-10-10 03:37:56 51°13.602 2°56.1 -999 13 12.8 101910 100
2005-10-10 03:38:01 51°13.602 2°56.1 -999 12 12.8 101910 100
2005-10-10 03:38:06 51°13.602 2°56.1 -999 13 12.8 101910 100
2005-10-10 03:38:10 51°13.602 2°56.1 -999 13 12.8 101910 100
2005-10-10 03:38:16 51°13.602 2°56.1 -999 12 12.8 101910 100
2005-10-10 03:38:21 51°13.602 2°56.1 -999 12 12.8 101910 100
2005-10-10 03:38:26 51°13.602 2°56.1 -999 13 12.8 101910 100
2005-10-10 03:38:30 51°13.602 2°56.1 -999 12 12.8 101910 100
2005-10-10 03:38:35 51°13.602 2°56.1 -999 20 12.8 101910 100
2005-10-10 03:38:41 51°13.602 2°56.1 -999 19 12.8 101910 100
2005-10-10 03:38:46 51°13.602 2°56.1 -999 12 12.8 101910 100
2005-10-10 03:38:50 51°13.602 2°56.1 -999 12 12.8 101910 100
2005-10-10 03:38:55 51°13.602 2°56.1 -999 12 12.8 101910 100
2005-10-10 03:39:00 51°13.602 2°56.1 -999 12 12.8 101910 100
2005-10-10 03:39:06 51°13.602 2°56.1 -999 14 12.8 101910 100
2005-10-10 03:39:10 51°13.602 2°56.1 -999 13 12.8 101910 100
2005-10-10 03:39:15 51°13.602 2°56.1 -999 12 12.8 101910 100
2005-10-10 03:39:20 51°13.602 2°56.1 -999 11 12.8 101910 100
2005-10-10 03:39:26 51°13.602 2°56.1 -999 5 12.8 101910 100
2005-10-10 03:39:30 51°13.602 2°56.1 -999 5 12.8 101910 100
2005-10-10 03:39:35 51°13.602 2°56.1 -999 17 12.8 101910 100
2005-10-10 03:39:40 51°13.602 2°56.1 -999 17 12.8 101910 100
2005-10-10 03:39:45 51°13.602 2°56.1 -999 14 12.8 101910 100
2005-10-10 03:39:50 51°13.602 2°56.1 -999 15 12.8 101910 100
2005-10-10 03:39:55 51°13.602 2°56.1 -999 7 12.8 101910 100
2005-10-10 03:40:00 51°13.602 2°56.101 -999 14 12.8 101910 100
2005-10-10 03:40:05 51°13.602 2°56.101 -999 12 12.8 101910 100
2005-10-10 03:40:10 51°13.602 2°56.101 -999 17 12.8 101910 100
2005-10-10 03:40:16 51°13.602 2°56.101 -999 16 12.8 101910 100
2005-10-10 03:40:21 51°13.602 2°56.101 -999 20 12.8 101910 100
2005-10-10 03:40:25 51°13.602 2°56.101 -999 20 12.8 101910 100
2005-10-10 03:40:30 51°13.602 2°56.101 -999 23 12.8 101910 100
2005-10-10 03:40:35 51°13.602 2°56.1 -999 21 12.8 101910 100
2005-10-10 03:40:41 51°13.602 2°56.1 -999 20 12.8 101910 100
2005-10-10 03:40:46 51°13.603 2°56.1 -999 24 12.8 101910 100
2005-10-10 03:40:50 51°13.603 2°56.1 -999 24 12.8 101910 100
2005-10-10 03:40:55 51°13.603 2°56.1 -999 24 12.8 101910 100
2005-10-10 03:41:01 51°13.602 2°56.101 -999 11 12.8 101910 100
2005-10-10 03:41:06 51°13.602 2°56.101 -999 4 12.8 101910 100
2005-10-10 03:41:10 51°13.602 2°56.101 -999 6 12.8 101910 100
2005-10-10 03:41:15 51°13.602 2°56.101 -999 6 12.8 101910 100
2005-10-10 03:41:20 51°13.602 2°56.101 -999 6 12.8 101910 100
2005-10-10 03:41:26 51°13.602 2°56.101 -999 6 12.8 101910 100
2005-10-10 03:41:30 51°13.602 2°56.101 -999 6 12.8 101910 100
2005-10-10 03:41:35 51°13.602 2°56.101 -999 6 12.8 101910 100
2005-10-10 03:41:40 51°13.602 2°56.101 -999 6 12.8 101910 100
2005-10-10 03:41:45 51°13.602 2°56.101 -999 10 12.8 101910 100
2005-10-10 03:41:50 51°13.602 2°56.101 -999 19 12.8 101910 100
2005-10-10 03:41:55 51°13.602 2°56.101 -999 24 12.8 101910 100
2005-10-10 03:42:00 51°13.602 2°56.101 -999 15 12.8 101910 100
2005-10-10 03:42:05 51°13.602 2°56.101 -999 15 12.8 101910 100
2005-10-10 03:42:10 51°13.602 2°56.101 -999 15 12.8 101910 100
2005-10-10 03:42:15 51°13.602 2°56.1 -999 15 12.8 101910 100
2005-10-10 03:42:21 51°13.602 2°56.1 -999 17 12.8 101910 100
2005-10-10 03:42:25 51°13.602 2°56.101 -999 18 12.8 101910 100
2005-10-10 03:42:30 51°13.602 2°56.101 -999 26 12.8 101910 100
2005-10-10 03:42:36 51°13.602 2°56.101 -999 5 12.8 101910 100
2005-10-10 03:42:41 51°13.602 2°56.101 -999 5 12.8 101910 100
2005-10-10 03:42:45 51°13.602 2°56.101 -999 5 12.8 101910 100
2005-10-10 03:42:50 51°13.602 2°56.1 -999 6 12.8 101910 100
2005-10-10 03:42:56 51°13.602 2°56.1 -999 6 12.8 101910 100
2005-10-10 03:43:01 51°13.602 2°56.1 -999 6 12.8 101910 100
2005-10-10 03:43:06 51°13.602 2°56.1 -999 6 12.8 101910 100
2005-10-10 03:43:10 51°13.602 2°56.1 -999 14 12.8 101910 100
2005-10-10 03:43:15 51°13.602 2°56.1 -999 16 12.8 101910 100
2005-10-10 03:43:21 51°13.602 2°56.1 -999 16 12.8 101910 100
2005-10-10 03:43:26 51°13.602 2°56.1 -999 15 12.8 101910 100
2005-10-10 03:43:30 51°13.602 2°56.1 -999 14 12.8 101910 100
2005-10-10 03:43:35 51°13.602 2°56.1 -999 15 12.8 101910 100
2005-10-10 03:43:40 51°13.602 2°56.1 -999 14 12.8 101910 100
2005-10-10 03:43:46 51°13.602 2°56.1 -999 16 12.8 101910 100
2005-10-10 03:43:50 51°13.602 2°56.1 -999 22 12.8 101910 100
2005-10-10 03:43:55 51°13.602 2°56.1 -999 15 12.8 101910 100
2005-10-10 03:44:00 51°13.602 2°56.1 -999 15 12.8 101910 100
2005-10-10 03:44:05 51°13.603 2°56.1 -999 14 12.8 101910 100
2005-10-10 03:44:10 51°13.603 2°56.1 -999 14 12.8 101910 100
2005-10-10 03:44:15 51°13.603 2°56.1 -999 14 12.8 101910 100
2005-10-10 03:44:20 51°13.603 2°56.1 -999 14 12.8 101910 100
2005-10-10 03:44:25 51°13.603 2°56.1 -999 13 12.8 101910 100
2005-10-10 03:44:30 51°13.603 2°56.1 -999 12 12.8 101910 100
2005-10-10 03:44:36 51°13.602 2°56.1 -999 12 12.8 101910 100
2005-10-10 03:44:41 51°13.602 2°56.1 -999 12 12.8 101910 100
2005-10-10 03:44:45 51°13.602 2°56.1 -999 12 12.8 101910 100
2005-10-10 03:44:50 51°13.602 2°56.1 -999 12 12.8 101910 100
2005-10-10 03:44:56 51°13.602 2°56.1 -999 15 12.8 101910 100
2005-10-10 03:45:01 51°13.602 2°56.1 -999 18 12.8 101910 100
2005-10-10 03:45:06 51°13.602 2°56.1 -999 19 12.8 101910 100
2005-10-10 03:45:10 51°13.602 2°56.1 -999 16 12.8 101910 100
2005-10-10 03:45:16 51°13.602 2°56.1 -999 16 12.8 101910 100
2005-10-10 03:45:21 51°13.602 2°56.1 -999 16 12.8 101910 100
2005-10-10 03:45:26 51°13.602 2°56.1 -999 18 12.8 101910 100
2005-10-10 03:45:30 51°13.602 2°56.1 -999 18 12.8 101910 100
2005-10-10 03:45:35 51°13.602 2°56.1 -999 18 12.8 101910 100
2005-10-10 03:45:41 51°13.602 2°56.1 -999 18 12.8 101910 100
2005-10-10 03:45:46 51°13.603 2°56.1 -999 15 12.8 101910 100
2005-10-10 03:45:50 51°13.602 2°56.1 -999 15 12.8 101910 100
2005-10-10 03:45:55 51°13.602 2°56.1 -999 4 12.8 101910 100
2005-10-10 03:46:00 51°13.602 2°56.1 -999 4 12.8 101910 100
2005-10-10 03:46:06 51°13.602 2°56.1 -999 4 12.8 101910 100
2005-10-10 03:46:10 51°13.602 2°56.1 -999 4 12.8 101910 100
2005-10-10 03:46:15 51°13.602 2°56.1 -999 8 12.8 101910 100
2005-10-10 03:46:20 51°13.602 2°56.099 -999 7 12.8 101910 100
2005-10-10 03:46:26 51°13.602 2°56.099 -999 8 12.8 101910 100
2005-10-10 03:46:30 51°13.602 2°56.099 -999 9 12.8 101910 100
2005-10-10 03:46:35 51°13.602 2°56.099 -999 8 12.8 101910 100
2005-10-10 03:46:41 51°13.602 2°56.099 -999 8 12.8 101910 100
2005-10-10 03:46:45 51°13.602 2°56.099 -999 13 12.8 101910 100
2005-10-10 03:46:50 51°13.602 2°56.099 -999 15 12.8 101910 100
2005-10-10 03:46:56 51°13.602 2°56.099 -999 15 12.8 101910 100
2005-10-10 03:47:01 51°13.602 2°56.099 -999 14 12.8 101910 100
2005-10-10 03:47:05 51°13.602 2°56.099 -999 14 12.8 101910 100
2005-10-10 03:47:10 51°13.602 2°56.099 -999 15 12.8 101910 100
2005-10-10 03:47:16 51°13.602 2°56.099 -999 14 12.8 101910 100
2005-10-10 03:47:21 51°13.602 2°56.099 -999 14 12.8 101910 100
2005-10-10 03:47:26 51°13.602 2°56.099 -999 14 12.8 101910 100
2005-10-10 03:47:30 51°13.602 2°56.099 -999 15 12.8 101910 100
2005-10-10 03:47:35 51°13.602 2°56.099 -999 14 12.8 101910 100
2005-10-10 03:47:41 51°13.602 2°56.099 -999 14 12.8 101910 100
2005-10-10 03:47:46 51°13.602 2°56.099 -999 13 12.8 101910 100
2005-10-10 03:47:50 51°13.602 2°56.099 -999 10 12.8 101910 100
2005-10-10 03:47:55 51°13.602 2°56.098 -999 10 12.8 101910 100
2005-10-10 03:48:01 51°13.602 2°56.098 -999 4 12.8 101910 100
2005-10-10 03:48:06 51°13.602 2°56.099 -999 6 12.8 101910 100
2005-10-10 03:48:10 51°13.602 2°56.098 -999 6 12.8 101910 100
2005-10-10 03:48:15 51°13.602 2°56.099 -999 7 12.8 101910 100
2005-10-10 03:48:20 51°13.602 2°56.099 -999 8 12.8 101910 100
2005-10-10 03:48:26 51°13.602 2°56.099 -999 15 12.8 101910 100
2005-10-10 03:48:30 51°13.602 2°56.099 -999 24 12.8 101910 100
2005-10-10 03:48:35 51°13.602 2°56.099 -999 30 12.8 101910 100
2005-10-10 03:48:40 51°13.602 2°56.099 -999 13 12.8 101910 100
2005-10-10 03:48:46 51°13.602 2°56.099 -999 13 12.8 101910 100
2005-10-10 03:48:50 51°13.602 2°56.099 -999 17 12.8 101910 100
2005-10-10 03:48:55 51°13.602 2°56.099 -999 18 12.8 101910 100
2005-10-10 03:49:01 51°13.602 2°56.099 -999 15 12.8 101910 100
2005-10-10 03:49:05 51°13.602 2°56.099 -999 18 12.8 101910 100
2005-10-10 03:49:10 51°13.602 2°56.099 -999 15 12.8 101910 100
2005-10-10 03:49:15 51°13.602 2°56.099 -999 16 12.8 101910 100
2005-10-10 03:49:21 51°13.602 2°56.099 -999 9 12.8 101910 100
2005-10-10 03:49:25 51°13.602 2°56.099 -999 10 12.8 101910 100
2005-10-10 03:49:30 51°13.602 2°56.099 -999 10 12.8 101910 100
2005-10-10 03:49:36 51°13.602 2°56.099 -999 10 12.8 101910 100
2005-10-10 03:49:41 51°13.602 2°56.099 -999 10 12.8 101910 100
2005-10-10 03:49:46 51°13.602 2°56.099 -999 22 12.8 101910 100
2005-10-10 03:49:50 51°13.602 2°56.099 -999 23 12.8 101910 100
2005-10-10 03:49:56 51°13.602 2°56.099 -999 19 12.8 101910 100
2005-10-10 03:50:01 51°13.602 2°56.099 -999 19 12.8 101910 100
2005-10-10 03:50:06 51°13.602 2°56.099 -999 19 12.8 101910 100
2005-10-10 03:50:10 51°13.602 2°56.099 -999 14 12.8 101910 100
2005-10-10 03:50:15 51°13.602 2°56.099 -999 14 12.8 101910 100
2005-10-10 03:50:20 51°13.602 2°56.099 -999 14 12.8 101910 100
2005-10-10 03:50:26 51°13.602 2°56.099 -999 12 12.8 101910 100
2005-10-10 03:50:30 51°13.602 2°56.099 -999 11 12.8 101910 100
2005-10-10 03:50:35 51°13.602 2°56.099 -999 12 12.8 101910 100
2005-10-10 03:50:40 51°13.602 2°56.099 -999 12 12.8 101910 100
2005-10-10 03:50:46 51°13.602 2°56.099 -999 12 12.8 101910 100
2005-10-10 03:50:50 51°13.602 2°56.099 -999 19 12.8 101910 100
2005-10-10 03:50:55 51°13.602 2°56.099 -999 18 12.8 101910 100
2005-10-10 03:51:00 51°13.602 2°56.099 -999 18 12.8 101910 100
2005-10-10 03:51:05 51°13.602 2°56.1 -999 19 12.8 101910 100
2005-10-10 03:51:10 51°13.602 2°56.1 -999 15 12.8 101910 100
2005-10-10 03:51:15 51°13.602 2°56.1 -999 13 12.8 101910 100
2005-10-10 03:51:21 51°13.602 2°56.1 -999 16 12.8 101910 100
2005-10-10 03:51:25 51°13.602 2°56.1 -999 16 12.8 101910 100
2005-10-10 03:51:30 51°13.602 2°56.1 -999 14 12.8 101910 100
2005-10-10 03:51:36 51°13.602 2°56.1 -999 11 12.8 101910 100
2005-10-10 03:51:41 51°13.602 2°56.1 -999 11 12.8 101910 100
2005-10-10 03:51:46 51°13.602 2°56.1 -999 12 12.8 101910 100
2005-10-10 03:51:50 51°13.602 2°56.1 -999 12 12.8 101910 100
2005-10-10 03:51:56 51°13.602 2°56.1 -999 13 12.8 101910 100
2005-10-10 03:52:01 51°13.602 2°56.1 -999 13 12.8 101910 100
2005-10-10 03:52:06 51°13.602 2°56.1 -999 13 12.8 101910 100
2005-10-10 03:52:10 51°13.602 2°56.1 -999 16 12.8 101910 100
2005-10-10 03:52:15 51°13.602 2°56.1 -999 19 12.8 101910 100
2005-10-10 03:52:21 51°13.602 2°56.1 -999 19 12.8 101910 100
2005-10-10 03:52:26 51°13.602 2°56.1 -999 15 12.8 101910 100
2005-10-10 03:52:30 51°13.602 2°56.1 -999 6 12.8 101910 100
2005-10-10 03:52:35 51°13.602 2°56.1 -999 12 12.8 101910 100
2005-10-10 03:52:41 51°13.602 2°56.1 -999 17 12.8 101910 100
2005-10-10 03:52:46 51°13.602 2°56.1 -999 23 12.8 101910 100
2005-10-10 03:52:50 51°13.602 2°56.1 -999 24 12.8 101910 100
2005-10-10 03:52:55 51°13.602 2°56.1 -999 18 12.8 101910 100
2005-10-10 03:53:00 51°13.602 2°56.1 -999 14 12.8 101910 100
2005-10-10 03:53:06 51°13.602 2°56.1 -999 18 12.8 101910 100
2005-10-10 03:53:10 51°13.602 2°56.1 -999 22 12.8 101910 100
2005-10-10 03:53:15 51°13.602 2°56.1 -999 35 12.8 101910 100
2005-10-10 03:53:20 51°13.602 2°56.1 -999 35 12.8 101910 100
2005-10-10 03:53:26 51°13.602 2°56.1 -999 26 12.8 101910 100
2005-10-10 03:53:30 51°13.602 2°56.1 -999 26 12.8 101910 100
2005-10-10 03:53:35 51°13.602 2°56.1 -999 26 12.8 101910 100
2005-10-10 03:53:41 51°13.602 2°56.1 -999 26 12.8 101910 100
2005-10-10 03:53:45 51°13.602 2°56.1 -999 26 12.8 101910 100
2005-10-10 03:53:50 51°13.602 2°56.1 -999 26 12.8 101910 100
2005-10-10 03:53:56 51°13.602 2°56.1 -999 26 12.8 101910 100
2005-10-10 03:54:01 51°13.602 2°56.1 -999 26 12.8 101910 100
2005-10-10 03:54:06 51°13.602 2°56.1 -999 29 12.8 101910 100
2005-10-10 03:54:10 51°13.602 2°56.1 -999 28 12.8 101910 100
2005-10-10 03:54:16 51°13.602 2°56.1 -999 27 12.8 101910 100
2005-10-10 03:54:21 51°13.602 2°56.1 -999 27 12.8 101910 100
2005-10-10 03:54:26 51°13.602 2°56.1 -999 25 12.8 101910 100
2005-10-10 03:54:30 51°13.602 2°56.1 -999 22 12.8 101910 100
2005-10-10 03:54:36 51°13.602 2°56.1 -999 22 12.8 101910 100
2005-10-10 03:54:41 51°13.602 2°56.1 -999 20 12.8 101910 100
2005-10-10 03:54:46 51°13.602 2°56.1 -999 20 12.8 101910 100
2005-10-10 03:54:50 51°13.602 2°56.1 -999 358 12.8 101910 100
2005-10-10 03:54:55 51°13.602 2°56.1 -999 359 12.8 101910 100
2005-10-10 03:55:00 51°13.602 2°56.1 -999 359 12.8 101910 100
2005-10-10 03:55:06 51°13.602 2°56.1 -999 359 12.8 101910 100
2005-10-10 03:55:10 51°13.602 2°56.1 -999 8 12.8 101910 100
2005-10-10 03:55:15 51°13.602 2°56.1 -999 28 12.8 101910 100
2005-10-10 03:55:20 51°13.602 2°56.1 -999 28 12.8 101910 100
2005-10-10 03:55:26 51°13.602 2°56.1 -999 22 12.8 101910 100
2005-10-10 03:55:30 51°13.602 2°56.1 -999 23 12.8 101910 100
2005-10-10 03:55:35 51°13.602 2°56.1 -999 18 12.8 101910 100
2005-10-10 03:55:40 51°13.602 2°56.099 -999 18 12.8 101910 100
2005-10-10 03:55:45 51°13.602 2°56.099 -999 18 12.8 101910 100
2005-10-10 03:55:50 51°13.602 2°56.099 -999 18 12.8 101910 100
2005-10-10 03:55:55 51°13.602 2°56.099 -999 19 12.8 101910 100
2005-10-10 03:56:01 51°13.602 2°56.099 -999 19 12.8 101910 100
2005-10-10 03:56:06 51°13.602 2°56.099 -999 18 12.8 101910 100
2005-10-10 03:56:10 51°13.602 2°56.099 -999 18 12.8 101910 100
2005-10-10 03:56:16 51°13.602 2°56.099 -999 18 12.8 101910 100
2005-10-10 03:56:21 51°13.602 2°56.099 -999 19 12.8 101910 100
2005-10-10 03:56:26 51°13.602 2°56.099 -999 20 12.8 101910 100
2005-10-10 03:56:30 51°13.602 2°56.099 -999 19 12.8 101910 100
2005-10-10 03:56:36 51°13.602 2°56.099 -999 16 12.8 101910 100
2005-10-10 03:56:41 51°13.602 2°56.099 -999 5 12.8 101910 100
2005-10-10 03:56:46 51°13.602 2°56.099 -999 10 12.8 101910 100
2005-10-10 03:56:50 51°13.602 2°56.099 -999 11 12.8 101910 100
2005-10-10 03:56:55 51°13.602 2°56.099 -999 12 12.8 101910 100
2005-10-10 03:57:01 51°13.602 2°56.099 -999 19 12.8 101910 100
2005-10-10 03:57:06 51°13.602 2°56.099 -999 23 12.8 101910 100
2005-10-10 03:57:10 51°13.602 2°56.098 -999 23 12.8 101910 100
2005-10-10 03:57:15 51°13.602 2°56.098 -999 20 12.8 101910 100
2005-10-10 03:57:20 51°13.602 2°56.098 -999 23 12.8 101910 100
2005-10-10 03:57:26 51°13.602 2°56.098 -999 25 12.8 101910 100
2005-10-10 03:57:30 51°13.602 2°56.098 -999 25 12.8 101910 100
2005-10-10 03:57:35 51°13.602 2°56.098 -999 22 12.8 101910 100
2005-10-10 03:57:40 51°13.602 2°56.098 -999 24 12.8 101910 100
2005-10-10 03:57:46 51°13.602 2°56.098 -999 23 12.8 101910 100
2005-10-10 03:57:50 51°13.602 2°56.098 -999 21 12.8 101910 100
2005-10-10 03:57:55 51°13.602 2°56.098 -999 19 12.8 101910 100
2005-10-10 03:58:00 51°13.602 2°56.098 -999 19 12.8 101910 100
2005-10-10 03:58:05 51°13.602 2°56.098 -999 19 12.8 101910 100
2005-10-10 03:58:10 51°13.602 2°56.099 -999 19 12.8 101910 100
2005-10-10 03:58:16 51°13.602 2°56.099 -999 25 12.8 101910 100
2005-10-10 03:58:21 51°13.602 2°56.099 -999 38 12.8 101910 100
2005-10-10 03:58:25 51°13.602 2°56.099 -999 20 12.8 101910 100
2005-10-10 03:58:30 51°13.602 2°56.099 -999 23 12.8 101910 100
2005-10-10 03:58:36 51°13.602 2°56.099 -999 23 12.8 101910 100
2005-10-10 03:58:41 51°13.602 2°56.099 -999 26 12.8 101910 100
2005-10-10 03:58:46 51°13.602 2°56.099 -999 21 12.8 101910 100
2005-10-10 03:58:50 51°13.602 2°56.099 -999 21 12.8 101910 100
2005-10-10 03:58:56 51°13.602 2°56.099 -999 22 12.8 101910 100
2005-10-10 03:59:01 51°13.602 2°56.099 -999 19 12.8 101910 100
2005-10-10 03:59:06 51°13.602 2°56.099 -999 24 12.8 101910 100
2005-10-10 03:59:10 51°13.602 2°56.099 -999 20 12.8 101910 100
2005-10-10 03:59:15 51°13.602 2°56.099 -999 21 12.8 101910 100
2005-10-10 03:59:21 51°13.602 2°56.099 -999 22 12.8 101910 100
2005-10-10 03:59:26 51°13.602 2°56.099 -999 21 12.8 101910 100
2005-10-10 03:59:30 51°13.602 2°56.099 -999 21 12.8 101910 100
2005-10-10 03:59:35 51°13.602 2°56.099 -999 21 12.8 101910 100
2005-10-10 03:59:40 51°13.602 2°56.099 -999 18 12.8 101910 100
2005-10-10 03:59:46 51°13.602 2°56.099 -999 16 12.8 101910 100
2005-10-10 03:59:50 51°13.602 2°56.099 -999 25 12.8 101910 100
2005-10-10 03:59:55 51°13.602 2°56.099 -999 21 12.8 101910 100
2005-10-10 04:00:00 51°13.602 2°56.099 -999 22 12.8 101910 100
2005-10-10 04:00:06 51°13.602 2°56.099 -999 24 12.8 101910 100
2005-10-10 04:00:10 51°13.602 2°56.099 -999 22 12.8 101910 100
2005-10-10 04:00:15 51°13.602 2°56.099 -999 17 12.8 101910 100
2005-10-10 04:00:21 51°13.602 2°56.099 -999 16 12.8 101910 100
2005-10-10 04:00:25 51°13.602 2°56.099 -999 30 12.8 101910 100
2005-10-10 04:00:30 51°13.602 2°56.099 -999 27 12.8 101910 100
2005-10-10 04:00:36 51°13.602 2°56.099 -999 20 12.8 101910 100
2005-10-10 04:00:41 51°13.602 2°56.099 -999 20 12.8 101910 100
2005-10-10 04:00:46 51°13.602 2°56.099 -999 24 12.8 101910 100
2005-10-10 04:00:50 51°13.602 2°56.099 -999 20 12.8 101910 100
2005-10-10 04:00:56 51°13.602 2°56.099 -999 24 12.8 101910 100
2005-10-10 04:01:01 51°13.602 2°56.099 -999 20 12.8 101910 100
2005-10-10 04:01:06 51°13.602 2°56.099 -999 24 12.8 101910 100
2005-10-10 04:01:10 51°13.602 2°56.099 -999 23 12.8 101910 100
2005-10-10 04:01:15 51°13.602 2°56.099 -999 19 12.8 101910 100
2005-10-10 04:01:21 51°13.602 2°56.099 -999 20 12.8 101910 100
2005-10-10 04:01:26 51°13.602 2°56.099 -999 18 12.8 101910 100
2005-10-10 04:01:30 51°13.602 2°56.099 -999 18 12.8 101910 100
2005-10-10 04:01:35 51°13.602 2°56.099 -999 39 12.7 101910 100
2005-10-10 04:01:41 51°13.602 2°56.099 -999 33 12.7 101910 100
2005-10-10 04:01:46 51°13.602 2°56.099 -999 10 12.8 101910 100
2005-10-10 04:01:50 51°13.602 2°56.099 -999 16 12.8 101910 100
2005-10-10 04:01:55 51°13.602 2°56.099 -999 37 12.8 101910 100
2005-10-10 04:02:00 51°13.602 2°56.099 -999 19 12.8 101910 100
2005-10-10 04:02:06 51°13.602 2°56.099 -999 19 12.8 101910 100
2005-10-10 04:02:10 51°13.602 2°56.099 -999 19 12.8 101910 100
2005-10-10 04:02:15 51°13.602 2°56.099 -999 16 12.8 101910 100
2005-10-10 04:02:20 51°13.602 2°56.099 -999 38 12.8 101910 100
2005-10-10 04:02:26 51°13.602 2°56.099 -999 37 12.8 101910 100
2005-10-10 04:02:30 51°13.602 2°56.099 -999 31 12.8 101910 100
2005-10-10 04:02:36 51°13.602 2°56.099 -999 8 12.8 101910 100
2005-10-10 04:02:41 51°13.603 2°56.099 -999 19 12.8 101910 100
2005-10-10 04:02:45 51°13.602 2°56.099 -999 12 12.8 101910 100
2005-10-10 04:02:50 51°13.602 2°56.099 -999 15 12.8 101910 100
2005-10-10 04:02:56 51°13.602 2°56.099 -999 30 12.7 101910 100
2005-10-10 04:03:01 51°13.602 2°56.099 -999 13 12.7 101910 100
2005-10-10 04:03:05 51°13.602 2°56.099 -999 23 12.8 101910 100
2005-10-10 04:03:10 51°13.602 2°56.099 -999 22 12.8 101910 100
2005-10-10 04:03:16 51°13.602 2°56.099 -999 21 12.8 101910 100
2005-10-10 04:03:21 51°13.602 2°56.099 -999 22 12.8 101910 100
2005-10-10 04:03:26 51°13.602 2°56.1 -999 21 12.8 101910 100
2005-10-10 04:03:30 51°13.602 2°56.1 -999 17 12.8 101910 100
2005-10-10 04:03:35 51°13.603 2°56.1 -999 47 12.8 101910 100
2005-10-10 04:03:41 51°13.603 2°56.1 -999 41 12.8 101910 100
2005-10-10 04:03:46 51°13.602 2°56.099 -999 30 12.8 101910 100
2005-10-10 04:03:50 51°13.602 2°56.099 -999 20 12.8 101910 100
2005-10-10 04:03:55 51°13.602 2°56.099 -999 15 12.8 101910 100
2005-10-10 04:04:01 51°13.602 2°56.099 -999 21 12.8 101910 100
2005-10-10 04:04:06 51°13.602 2°56.099 -999 17 12.8 101910 100
2005-10-10 04:04:10 51°13.602 2°56.099 -999 35 12.8 101910 100
2005-10-10 04:04:15 51°13.602 2°56.1 -999 24 12.8 101910 100
2005-10-10 04:04:21 51°13.602 2°56.1 -999 22 12.8 101910 100
2005-10-10 04:04:26 51°13.602 2°56.1 -999 16 12.8 101900 100
2005-10-10 04:04:30 51°13.602 2°56.1 -999 -999 12.8 101900 100
2005-10-10 04:04:35 51°13.602 2°56.1 -999 13 12.8 101910 100
2005-10-10 04:04:40 51°13.602 2°56.1 -999 24 12.8 101910 100
2005-10-10 04:04:45 51°13.602 2°56.1 -999 31 12.8 101910 100
2005-10-10 04:04:50 51°13.602 2°56.1 -999 44 12.8 101910 100
2005-10-10 04:04:56 51°13.602 2°56.1 -999 38 12.8 101910 100
2005-10-10 04:05:01 51°13.602 2°56.1 -999 39 12.8 101910 100
2005-10-10 04:05:05 51°13.602 2°56.1 -999 18 12.8 101910 100
2005-10-10 04:05:10 51°13.602 2°56.1 -999 20 12.8 101910 100
2005-10-10 04:05:16 51°13.602 2°56.1 -999 13 12.8 101910 100
2005-10-10 04:05:21 51°13.602 2°56.1 -999 16 12.8 101910 100
2005-10-10 04:05:26 51°13.602 2°56.1 -999 57 12.8 101910 100
2005-10-10 04:05:30 51°13.602 2°56.1 -999 30 12.8 101910 100
2005-10-10 04:05:36 51°13.602 2°56.1 -999 13 12.8 101900 100
2005-10-10 04:05:41 51°13.602 2°56.1 -999 28 12.8 101900 100
2005-10-10 04:05:46 51°13.602 2°56.1 -999 25 12.8 101910 100
2005-10-10 04:05:50 51°13.602 2°56.1 -999 26 12.8 101910 100
2005-10-10 04:05:56 51°13.602 2°56.1 -999 23 12.8 101900 100
2005-10-10 04:06:01 51°13.602 2°56.1 -999 39 12.8 101900 100
2005-10-10 04:06:06 51°13.602 2°56.1 -999 36 12.8 101900 100
2005-10-10 04:06:10 51°13.602 2°56.1 -999 28 12.8 101900 100
2005-10-10 04:06:15 51°13.602 2°56.1 -999 41 12.8 101910 100
2005-10-10 04:06:21 51°13.602 2°56.1 -999 28 12.8 101910 100
2005-10-10 04:06:26 51°13.602 2°56.1 -999 5 12.8 101900 100
2005-10-10 04:06:30 51°13.602 2°56.1 -999 7 12.8 101900 100
2005-10-10 04:06:35 51°13.602 2°56.1 -999 18 12.8 101900 100
2005-10-10 04:06:40 51°13.602 2°56.1 -999 45 12.8 101900 100
2005-10-10 04:06:46 51°13.602 2°56.1 -999 16 12.8 101900 100
2005-10-10 04:06:50 51°13.602 2°56.1 -999 29 12.8 101900 100
2005-10-10 04:06:55 51°13.602 2°56.1 -999 32 12.8 101900 100
2005-10-10 04:07:01 51°13.601 2°56.1 -999 32 12.8 101900 100
2005-10-10 04:07:05 51°13.602 2°56.1 -999 34 12.8 101900 100
2005-10-10 04:07:10 51°13.602 2°56.1 -999 40 12.8 101900 100
2005-10-10 04:07:15 51°13.601 2°56.1 -999 22 12.8 101900 100
2005-10-10 04:07:21 51°13.601 2°56.1 -999 32 12.8 101900 100
2005-10-10 04:07:25 51°13.601 2°56.1 -999 24 12.8 101900 100
2005-10-10 04:07:30 51°13.601 2°56.1 -999 51 12.8 101900 100
2005-10-10 04:07:36 51°13.601 2°56.1 -999 27 12.8 101900 100
2005-10-10 04:07:41 51°13.601 2°56.1 -999 22 12.8 101900 100
2005-10-10 04:07:46 51°13.601 2°56.1 -999 18 12.8 101900 100
2005-10-10 04:07:50 51°13.601 2°56.1 -999 19 12.8 101900 100
2005-10-10 04:07:56 51°13.601 2°56.1 -999 31 12.8 101900 100
2005-10-10 04:08:01 51°13.601 2°56.1 -999 26 12.8 101900 100
2005-10-10 04:08:06 51°13.601 2°56.1 -999 32 12.8 101900 100
2005-10-10 04:08:10 51°13.601 2°56.1 -999 21 12.8 101900 100
2005-10-10 04:08:15 51°13.601 2°56.1 -999 15 12.8 101900 100
2005-10-10 04:08:21 51°13.601 2°56.1 -999 23 12.8 101900 100
2005-10-10 04:08:26 51°13.601 2°56.101 -999 18 12.8 101900 100
2005-10-10 04:08:30 51°13.601 2°56.101 -999 15 12.8 101900 100
2005-10-10 04:08:35 51°13.601 2°56.1 -999 55 12.8 101900 100
2005-10-10 04:08:41 51°13.601 2°56.1 -999 7 12.8 101900 100
2005-10-10 04:08:46 51°13.602 2°56.1 -999 28 12.8 101900 100
2005-10-10 04:08:50 51°13.602 2°56.1 -999 25 12.8 101900 100
2005-10-10 04:08:55 51°13.602 2°56.1 -999 37 12.8 101900 100
2005-10-10 04:09:00 51°13.602 2°56.1 -999 24 12.8 101900 100
2005-10-10 04:09:06 51°13.602 2°56.1 -999 18 12.8 101900 100
2005-10-10 04:09:10 51°13.602 2°56.1 -999 18 12.8 101900 100
2005-10-10 04:09:15 51°13.602 2°56.1 -999 25 12.8 101900 100
2005-10-10 04:09:21 51°13.602 2°56.1 -999 28 12.8 101900 100
2005-10-10 04:09:25 51°13.602 2°56.1 -999 14 12.8 101900 100
2005-10-10 04:09:30 51°13.602 2°56.1 -999 -999 12.8 101900 100
2005-10-10 04:09:35 51°13.602 2°56.1 -999 29 12.8 101900 100
2005-10-10 04:09:41 51°13.602 2°56.1 -999 30 12.8 101900 100
2005-10-10 04:09:46 51°13.602 2°56.1 -999 28 12.8 101900 100
2005-10-10 04:09:50 51°13.602 2°56.1 -999 2 12.8 101900 100
2005-10-10 04:09:56 51°13.602 2°56.1 -999 20 12.8 101900 100
2005-10-10 04:10:01 51°13.602 2°56.1 -999 28 12.8 101900 100
2005-10-10 04:10:06 51°13.602 2°56.1 -999 43 12.8 101900 100
2005-10-10 04:10:10 51°13.602 2°56.1 -999 27 12.8 101900 100
2005-10-10 04:10:16 51°13.602 2°56.1 -999 36 12.8 101900 100
2005-10-10 04:10:21 51°13.602 2°56.1 -999 27 12.8 101900 100
2005-10-10 04:10:26 51°13.602 2°56.1 -999 33 12.8 101900 100
2005-10-10 04:10:30 51°13.602 2°56.1 -999 33 12.8 101900 100
2005-10-10 04:10:36 51°13.602 2°56.1 -999 28 12.8 101900 100
2005-10-10 04:10:41 51°13.602 2°56.099 -999 5 12.8 101900 100
2005-10-10 04:10:46 51°13.601 2°56.099 -999 12 12.8 101900 100
2005-10-10 04:10:50 51°13.601 2°56.099 -999 26 12.8 101900 100
2005-10-10 04:10:55 51°13.602 2°56.099 -999 21 12.8 101900 100
2005-10-10 04:11:01 51°13.602 2°56.099 -999 37 12.8 101900 100
2005-10-10 04:11:06 51°13.602 2°56.099 -999 26 12.8 101900 100
2005-10-10 04:11:10 51°13.602 2°56.099 -999 25 12.8 101900 100
2005-10-10 04:11:15 51°13.602 2°56.099 -999 18 12.8 101900 100
2005-10-10 04:11:20 51°13.601 2°56.099 -999 18 12.8 101900 100
2005-10-10 04:11:26 51°13.601 2°56.099 -999 23 12.8 101910 100
2005-10-10 04:11:30 51°13.601 2°56.098 -999 29 12.8 101910 100
2005-10-10 04:11:35 51°13.601 2°56.098 -999 20 12.8 101910 100
2005-10-10 04:11:40 51°13.601 2°56.098 -999 30 12.8 101910 100
2005-10-10 04:11:45 51°13.601 2°56.098 -999 32 12.8 101900 100
2005-10-10 04:11:50 51°13.601 2°56.098 -999 33 12.8 101900 100
2005-10-10 04:11:56 51°13.601 2°56.098 -999 40 12.8 101900 100
2005-10-10 04:12:01 51°13.601 2°56.098 -999 44 12.8 101900 100
2005-10-10 04:12:06 51°13.601 2°56.098 -999 40 12.8 101900 100
2005-10-10 04:12:10 51°13.601 2°56.098 -999 44 12.8 101900 100
2005-10-10 04:12:16 51°13.602 2°56.098 -999 47 12.8 101900 100
2005-10-10 04:12:21 51°13.602 2°56.098 -999 51 12.8 101900 100
2005-10-10 04:12:26 51°13.602 2°56.098 -999 44 12.8 101900 100
2005-10-10 04:12:30 51°13.602 2°56.098 -999 33 12.8 101900 100
2005-10-10 04:12:36 51°13.602 2°56.098 -999 15 12.8 101900 100
2005-10-10 04:12:41 51°13.602 2°56.099 -999 30 12.8 101900 100
2005-10-10 04:12:46 51°13.602 2°56.098 -999 56 12.8 101900 100
2005-10-10 04:12:50 51°13.602 2°56.098 -999 44 12.8 101900 100
2005-10-10 04:12:55 51°13.602 2°56.099 -999 25 12.8 101900 100
2005-10-10 04:13:01 51°13.602 2°56.099 -999 32 12.8 101900 100
2005-10-10 04:13:06 51°13.602 2°56.099 -999 30 12.8 101900 100
2005-10-10 04:13:10 51°13.602 2°56.099 -999 23 12.8 101900 100
2005-10-10 04:13:15 51°13.602 2°56.099 -999 32 12.8 101900 100
2005-10-10 04:13:20 51°13.602 2°56.099 -999 34 12.8 101900 100
2005-10-10 04:13:26 51°13.602 2°56.099 -999 18 12.8 101900 100
2005-10-10 04:13:30 51°13.602 2°56.099 -999 21 12.8 101900 100
2005-10-10 04:13:35 51°13.602 2°56.099 -999 40 12.8 101900 100
2005-10-10 04:13:40 51°13.602 2°56.099 -999 31 12.8 101900 100
2005-10-10 04:13:45 51°13.602 2°56.099 -999 24 12.8 101900 100
2005-10-10 04:13:50 51°13.602 2°56.099 -999 16 12.8 101900 100
2005-10-10 04:13:55 51°13.602 2°56.099 -999 12 12.8 101900 100
2005-10-10 04:14:01 51°13.602 2°56.099 -999 19 12.8 101900 100
2005-10-10 04:14:05 51°13.602 2°56.099 -999 42 12.8 101900 100
2005-10-10 04:14:10 51°13.602 2°56.099 -999 14 12.8 101900 100
2005-10-10 04:14:16 51°13.602 2°56.099 -999 19 12.8 101900 100
2005-10-10 04:14:21 51°13.602 2°56.099 -999 42 12.8 101900 100
2005-10-10 04:14:25 51°13.602 2°56.099 -999 59 12.8 101900 100
2005-10-10 04:14:30 51°13.602 2°56.099 -999 53 12.8 101900 100
2005-10-10 04:14:36 51°13.602 2°56.099 -999 41 12.8 101900 100
2005-10-10 04:14:41 51°13.602 2°56.099 -999 62 12.8 101900 100
2005-10-10 04:14:46 51°13.602 2°56.099 -999 40 12.8 101900 100
2005-10-10 04:14:50 51°13.602 2°56.099 -999 11 12.8 101900 100
2005-10-10 04:14:56 51°13.602 2°56.099 -999 17 12.8 101910 100
2005-10-10 04:15:01 51°13.602 2°56.099 -999 44 12.8 101910 100
2005-10-10 04:15:06 51°13.602 2°56.099 -999 52 12.8 101900 100
2005-10-10 04:15:10 51°13.602 2°56.099 -999 32 12.8 101900 100
2005-10-10 04:15:15 51°13.602 2°56.099 -999 29 12.8 101900 100
2005-10-10 04:15:21 51°13.602 2°56.098 -999 43 12.8 101900 100
2005-10-10 04:15:26 51°13.602 2°56.098 -999 12 12.8 101900 100
2005-10-10 04:15:30 51°13.602 2°56.098 -999 19 12.8 101900 100
2005-10-10 04:15:35 51°13.602 2°56.098 -999 43 12.8 101910 100
2005-10-10 04:15:40 51°13.602 2°56.099 -999 44 12.8 101910 100
2005-10-10 04:15:46 51°13.602 2°56.098 -999 23 12.8 101900 100
2005-10-10 04:15:50 51°13.602 2°56.098 -999 22 12.8 101900 100
2005-10-10 04:15:55 51°13.602 2°56.098 -999 53 12.8 101900 100
2005-10-10 04:16:00 51°13.602 2°56.099 -999 28 12.8 101900 100
2005-10-10 04:16:05 51°13.602 2°56.099 -999 6 12.8 101900 100
2005-10-10 04:16:10 51°13.602 2°56.099 -999 24 12.8 101900 100
2005-10-10 04:16:16 51°13.602 2°56.099 -999 34 12.8 101900 100
2005-10-10 04:16:21 51°13.602 2°56.099 -999 42 12.8 101900 100
2005-10-10 04:16:25 51°13.602 2°56.099 -999 16 12.8 101900 100
2005-10-10 04:16:30 51°13.602 2°56.099 -999 8 12.8 101900 100
2005-10-10 04:16:36 51°13.602 2°56.099 -999 49 12.8 101910 100
2005-10-10 04:16:41 51°13.602 2°56.099 -999 56 12.8 101910 100
2005-10-10 04:16:45 51°13.602 2°56.099 -999 27 12.8 101900 100
2005-10-10 04:16:50 51°13.602 2°56.099 -999 29 12.8 101900 100
2005-10-10 04:16:56 51°13.602 2°56.099 -999 14 12.8 101900 100
2005-10-10 04:17:01 51°13.602 2°56.099 -999 14 12.8 101900 100
2005-10-10 04:17:06 51°13.602 2°56.1 -999 34 12.8 101900 100
2005-10-10 04:17:10 51°13.602 2°56.1 -999 38 12.8 101900 100
2005-10-10 04:17:15 51°13.603 2°56.1 -999 29 12.8 101900 100
2005-10-10 04:17:21 51°13.603 2°56.1 -999 52 12.8 101900 100
2005-10-10 04:17:26 51°13.602 2°56.1 -999 49 12.8 101900 100
2005-10-10 04:17:30 51°13.602 2°56.1 -999 48 12.8 101900 100
2005-10-10 04:17:35 51°13.602 2°56.1 -999 19 12.8 101900 100
2005-10-10 04:17:41 51°13.602 2°56.1 -999 59 12.8 101900 100
2005-10-10 04:17:46 51°13.602 2°56.1 -999 32 12.8 101900 100
2005-10-10 04:17:50 51°13.602 2°56.1 -999 33 12.8 101900 100
2005-10-10 04:17:55 51°13.602 2°56.099 -999 36 12.8 101900 100
2005-10-10 04:18:00 51°13.602 2°56.099 -999 32 12.8 101900 100
2005-10-10 04:18:06 51°13.602 2°56.099 -999 41 12.8 101900 100
2005-10-10 04:18:10 51°13.602 2°56.099 -999 38 12.8 101900 100
2005-10-10 04:18:15 51°13.602 2°56.099 -999 39 12.8 101900 100
2005-10-10 04:18:20 51°13.602 2°56.099 -999 29 12.8 101900 100
2005-10-10 04:18:26 51°13.602 2°56.099 -999 21 12.8 101900 100
2005-10-10 04:18:30 51°13.602 2°56.099 -999 28 12.8 101900 100
2005-10-10 04:18:36 51°13.602 2°56.099 -999 23 12.8 101900 100
2005-10-10 04:18:41 51°13.602 2°56.099 -999 6 12.8 101900 100
2005-10-10 04:18:45 51°13.602 2°56.099 -999 49 12.8 101900 100
2005-10-10 04:18:50 51°13.602 2°56.099 -999 21 12.8 101900 100
2005-10-10 04:18:56 51°13.602 2°56.099 -999 29 12.8 101900 100
2005-10-10 04:19:01 51°13.602 2°56.099 -999 34 12.8 101900 100
2005-10-10 04:19:06 51°13.602 2°56.099 -999 32 12.8 101900 100
2005-10-10 04:19:10 51°13.602 2°56.099 -999 22 12.8 101900 100
2005-10-10 04:19:16 51°13.602 2°56.099 -999 37 12.8 101900 100
2005-10-10 04:19:21 51°13.602 2°56.099 -999 40 12.8 101900 100
2005-10-10 04:19:26 51°13.602 2°56.099 -999 43 12.8 101900 100
2005-10-10 04:19:30 51°13.602 2°56.099 -999 25 12.8 101900 100
2005-10-10 04:19:36 51°13.602 2°56.099 -999 40 12.8 101900 100
2005-10-10 04:19:41 51°13.602 2°56.099 -999 42 12.8 101900 100
2005-10-10 04:19:46 51°13.602 2°56.099 -999 42 12.8 101900 100
2005-10-10 04:19:50 51°13.602 2°56.099 -999 33 12.8 101900 100
2005-10-10 04:19:55 51°13.602 2°56.098 -999 25 12.8 101900 100
2005-10-10 04:20:00 51°13.602 2°56.098 -999 349 12.8 101900 100
2005-10-10 04:20:06 51°13.602 2°56.098 -999 15 12.8 101900 100
2005-10-10 04:20:10 51°13.602 2°56.098 -999 47 12.8 101900 100
2005-10-10 04:20:15 51°13.602 2°56.098 -999 10 12.8 101900 100
2005-10-10 04:20:20 51°13.602 2°56.098 -999 34 12.8 101900 100
2005-10-10 04:20:26 51°13.602 2°56.098 -999 48 12.8 101900 100
2005-10-10 04:20:30 51°13.602 2°56.098 -999 -999 12.8 101900 100
2005-10-10 04:20:35 51°13.602 2°56.098 -999 28 12.8 101900 100
2005-10-10 04:20:41 51°13.602 2°56.098 -999 51 12.8 101900 100
2005-10-10 04:20:45 51°13.602 2°56.098 -999 41 12.8 101900 100
2005-10-10 04:20:50 51°13.602 2°56.098 -999 41 12.8 101900 100
2005-10-10 04:20:56 51°13.602 2°56.098 -999 36 12.8 101900 100
2005-10-10 04:21:01 51°13.602 2°56.099 -999 31 12.8 101900 100
2005-10-10 04:21:05 51°13.602 2°56.099 -999 34 12.8 101900 100
2005-10-10 04:21:10 51°13.602 2°56.099 -999 11 12.8 101900 100
2005-10-10 04:21:16 51°13.602 2°56.099 -999 23 12.8 101900 100
2005-10-10 04:21:21 51°13.602 2°56.099 -999 16 12.8 101900 100
2005-10-10 04:21:26 51°13.602 2°56.099 -999 38 12.8 101900 100
2005-10-10 04:21:30 51°13.602 2°56.099 -999 16 12.8 101900 100
2005-10-10 04:21:36 51°13.603 2°56.099 -999 39 12.8 101900 100
2005-10-10 04:21:41 51°13.603 2°56.099 -999 38 12.8 101900 100
2005-10-10 04:21:46 51°13.603 2°56.099 -999 11 12.8 101900 100
2005-10-10 04:21:50 51°13.603 2°56.099 -999 14 12.8 101900 100
2005-10-10 04:21:56 51°13.603 2°56.099 -999 37 12.8 101900 100
2005-10-10 04:22:01 51°13.603 2°56.099 -999 19 12.8 101900 100
2005-10-10 04:22:06 51°13.603 2°56.099 -999 35 12.8 101900 100
2005-10-10 04:22:10 51°13.603 2°56.099 -999 17 12.8 101900 100
2005-10-10 04:22:15 51°13.603 2°56.099 -999 19 12.8 101900 100
2005-10-10 04:22:20 51°13.603 2°56.099 -999 18 12.8 101900 100
2005-10-10 04:22:26 51°13.602 2°56.099 -999 27 12.8 101900 100
2005-10-10 04:22:30 51°13.602 2°56.099 -999 30 12.8 101900 100
2005-10-10 04:22:35 51°13.602 2°56.099 -999 22 12.8 101900 100
2005-10-10 04:22:40 51°13.602 2°56.1 -999 30 12.8 101900 100
2005-10-10 04:22:46 51°13.602 2°56.1 -999 13 12.8 101900 100
2005-10-10 04:22:50 51°13.602 2°56.1 -999 31 12.8 101900 100
2005-10-10 04:22:55 51°13.602 2°56.1 -999 21 12.8 101900 100
2005-10-10 04:23:01 51°13.602 2°56.1 -999 20 12.8 101900 100
2005-10-10 04:23:06 51°13.602 2°56.1 -999 23 12.8 101900 100
2005-10-10 04:23:10 51°13.602 2°56.1 -999 23 12.8 101900 100
2005-10-10 04:23:15 51°13.602 2°56.1 -999 23 12.8 101900 100
2005-10-10 04:23:21 51°13.602 2°56.1 -999 18 12.8 101900 100
2005-10-10 04:23:26 51°13.602 2°56.1 -999 14 12.8 101900 100
2005-10-10 04:23:30 51°13.602 2°56.1 -999 31 12.8 101900 100
2005-10-10 04:23:36 51°13.602 2°56.1 -999 18 12.8 101900 100
2005-10-10 04:23:41 51°13.602 2°56.1 -999 36 12.8 101900 100
2005-10-10 04:23:46 51°13.602 2°56.1 -999 41 12.8 101900 100
2005-10-10 04:23:50 51°13.602 2°56.1 -999 40 12.8 101900 100
2005-10-10 04:23:56 51°13.602 2°56.1 -999 29 12.8 101900 100
2005-10-10 04:24:01 51°13.602 2°56.1 -999 43 12.8 101900 100
2005-10-10 04:24:06 51°13.602 2°56.1 -999 33 12.8 101900 100
2005-10-10 04:24:10 51°13.602 2°56.1 -999 38 12.8 101900 100
2005-10-10 04:24:16 51°13.602 2°56.1 -999 36 12.8 101900 100
2005-10-10 04:24:21 51°13.602 2°56.1 -999 52 12.8 101900 100